GFSGL_500_spd_351.txt.gz
Wind_Speed
48 44 43 41 39 40 42 41 44 51 43 27 26 19 23 26 21 17 15 30 43 49 41 39 38 27 19 31 39 26 29 29 28 32 23 24 19 20 19 21 23 25 27
47 46 43 41 37 33 36 35 38 48 50 34 24 27 25 27 24 19 15 15 14 19 16 18 20 20 18 16 24 28 26 31 28 25 22 20 18 21 24 26 26 24 22
45 41 40 38 35 28 28 40 45 39 53 44 26 23 22 26 23 21 22 22 20 19 22 20 20 23 21 19 16 16 19 22 18 18 19 20 21 21 21 23 24 22 21
42 39 37 37 34 25 25 30 28 28 21 43 24 25 25 21 18 21 22 25 25 22 21 21 23 24 22 23 22 21 20 20 22 22 23 22 21 22 22 22 22 21 19
44 39 34 32 28 27 26 25 27 26 21 18 30 25 23 22 22 25 26 26 24 25 22 21 24 23 22 19 19 19 19 22 23 23 24 22 23 21 19 19 17 16 15
46 37 31 28 26 24 20 19 25 22 19 26 26 26 28 24 23 25 28 28 26 25 23 18 21 22 19 19 20 22 23 20 20 19 20 21 20 19 16 14 14 15 14
40 36 30 27 23 23 23 22 21 23 10 23 23 23 26 24 23 27 30 26 22 21 21 18 18 18 18 19 20 20 18 17 17 17 18 18 18 16 15 16 16 16 13
39 32 31 28 24 21 23 22 18 16 13 10 19 24 23 20 26 27 25 23 21 20 19 19 18 18 18 17 17 17 17 17 15 17 17 17 16 17 16 15 14 15 13
40 33 31 29 25 21 22 23 18 16 15 18 16 22 26 21 23 19 17 17 17 17 17 16 18 18 17 17 17 17 17 17 15 15 15 15 15 18 17 18 18 16 16
39 32 30 26 25 23 24 24 21 18 18 18 22 20 25 21 17 14 13 13 15 14 15 16 18 18 19 18 19 19 20 18 16 16 16 17 16 17 19 20 21 20 19
36 32 30 25 24 23 25 23 21 19 20 19 21 26 30 20 18 19 14 14 15 13 14 16 17 19 21 20 20 21 23 20 21 19 18 19 19 18 20 22 23 22 20
31 30 31 27 23 21 19 22 20 19 20 15 15 18 20 21 20 18 17 14 14 16 18 17 18 20 20 20 19 21 21 21 23 23 21 21 22 21 20 21 23 24 23
31 36 29 23 17 16 16 16 18 20 19 18 18 18 18 17 17 17 16 15 17 18 20 21 23 25 24 23 23 24 24 24 26 25 25 24 24 25 23 24 25 25 25
29 30 25 22 21 22 17 17 18 19 20 19 20 18 17 17 18 18 18 18 20 23 23 23 23 24 25 26 26 27 27 26 28 29 28 27 24 26 28 28 26 27 26
29 27 25 22 23 24 21 19 17 18 18 18 18 19 19 19 19 20 22 24 25 26 25 25 24 25 25 26 26 26 27 26 27 29 29 29 28 29 30 31 30 31 28
28 25 24 22 22 23 23 20 19 19 18 17 18 20 22 24 25 26 27 28 29 28 26 25 26 27 28 28 27 29 30 29 29 31 31 32 33 33 34 35 34 33 33
26 25 23 21 21 22 23 21 20 21 22 22 22 24 26 28 30 31 32 31 29 28 27 28 28 29 31 31 31 32 32 33 34 33 34 34 34 36 39 40 39 38 37
27 27 27 21 21 23 23 22 21 22 22 22 23 24 26 28 30 31 31 30 29 29 28 29 31 34 35 35 35 35 35 36 37 38 37 37 39 39 40 42 44 42 42
28 30 30 27 24 24 25 22 22 21 20 22 22 24 25 27 28 29 28 29 30 30 31 32 32 33 35 37 36 36 35 36 38 37 37 37 38 40 41 43 43 43 45
25 28 36 35 27 26 27 25 24 22 22 24 26 28 27 27 28 30 30 29 31 33 34 35 35 37 37 38 41 38 37 38 34 33 33 32 35 39 40 41 41 43 40
25 38 34 38 32 29 27 26 26 26 27 28 28 29 30 31 32 31 32 33 34 35 37 38 41 41 37 33 32 34 36 34 31 31 30 30 30 32 37 37 38 38 39
17 15 25 31 35 31 28 29 28 26 28 31 32 33 34 34 34 34 34 35 36 35 37 38 37 36 38 38 36 36 36 35 33 33 31 29 30 28 30 33 34 35 39
17 15 11 20 28 25 32 36 30 27 28 30 31 29 30 31 32 31 32 31 35 35 35 33 34 37 37 38 37 37 35 34 33 35 34 32 33 32 33 34 36 32 36
17 15 12 14 13 18 21 24 26 22 25 27 25 27 27 29 30 29 28 33 36 35 35 35 35 35 37 35 32 32 32 29 33 33 34 35 35 35 35 39 38 40 36
19 17 18 17 16 17 18 20 21 23 24 24 26 29 29 30 33 29 30 36 34 32 31 35 37 39 35 35 35 34 32 31 32 37 38 40 39 41 39 38 40 39 39
19 16 19 20 20 19 21 22 22 24 23 25 27 31 32 35 37 39 39 37 35 34 34 35 34 35 38 40 41 36 34 36 38 37 41 43 43 41 43 43 40 40 40

GFSGL_500_spd_354.txt.gz
Wind_Speed
37 41 40 40 38 34 32 31 34 40 44 43 46 43 46 41 42 35 29 26 28 36 39 44 33 40 37 39 41 36 31 38 31 33 35 29 33 30 28 23 19 21 22
40 43 45 44 42 36 35 33 30 31 28 36 45 51 50 46 40 28 26 31 28 21 22 21 32 37 38 32 20 19 36 30 26 27 26 31 37 31 26 21 21 21 22
42 44 45 44 41 36 35 32 29 28 29 38 31 37 31 46 32 31 30 32 28 23 19 19 19 16 22 13 14 17 21 30 29 30 28 26 24 16 15 18 21 22 23
43 45 45 43 38 34 32 28 29 28 28 31 25 22 37 33 27 29 31 32 29 24 23 24 22 18 17 20 21 19 19 19 21 24 21 19 17 20 20 22 24 23 22
45 45 43 42 38 32 30 27 27 29 30 28 32 19 34 21 28 31 27 26 27 22 22 23 25 19 17 17 18 19 19 19 19 19 19 19 21 23 24 24 24 22 21
46 44 43 41 38 30 29 28 27 25 29 31 31 24 23 31 32 29 27 27 26 27 24 24 23 20 19 18 18 20 19 19 20 20 20 21 22 23 23 22 20 18 15
47 45 42 41 41 31 26 28 27 25 26 28 25 26 29 31 27 28 27 22 25 24 26 24 19 19 20 20 21 22 21 21 19 20 21 20 21 20 19 18 18 16 16
45 43 41 39 41 36 28 24 26 24 23 23 18 25 29 27 28 27 27 28 26 27 25 22 20 22 22 22 22 22 20 20 20 18 17 19 20 20 19 19 18 19 18
43 43 40 37 38 33 29 23 24 23 22 20 19 18 19 27 22 17 20 25 27 27 25 22 19 20 22 22 22 20 19 19 19 18 17 20 21 20 20 21 22 20 20
42 40 36 34 36 34 26 22 24 25 24 21 18 20 24 21 22 23 21 21 21 19 16 15 17 20 21 22 21 20 21 21 20 19 18 17 18 18 19 20 20 21 23
42 38 33 31 33 29 23 23 24 26 24 22 19 20 23 28 23 24 20 19 15 15 16 17 18 18 19 19 20 23 23 20 21 22 20 18 19 19 20 19 19 22 24
39 35 31 30 31 28 22 22 23 23 23 20 18 19 19 23 28 30 21 20 17 17 19 17 17 17 18 19 20 21 19 18 20 21 22 22 22 22 23 23 21 22 25
37 33 30 30 27 20 16 17 19 21 21 18 17 15 15 13 15 18 21 21 21 20 19 17 18 19 20 21 22 21 21 21 22 23 24 25 26 26 23 23 23 24 26
34 33 29 31 27 19 17 17 19 20 21 21 19 17 17 19 20 20 20 20 21 21 20 20 20 21 21 22 23 25 25 25 24 25 26 26 26 26 25 26 29 29 27
32 31 28 30 26 21 19 17 17 19 20 22 20 20 20 20 20 19 20 22 23 24 23 24 25 25 25 25 25 25 26 26 25 27 28 28 27 27 30 32 33 33 30
32 29 30 27 26 24 20 18 18 18 20 21 20 21 23 25 24 25 25 25 26 27 27 28 28 27 27 26 26 27 27 27 28 29 29 30 29 29 30 32 35 35 34
31 26 27 23 24 24 23 20 21 20 22 23 23 23 24 26 28 30 30 30 29 29 29 30 29 28 28 28 28 29 29 29 29 28 28 30 30 30 31 33 33 35 36
25 21 26 25 24 24 25 24 23 22 23 23 22 23 24 25 27 28 29 30 29 29 29 29 30 30 30 29 29 30 31 31 31 30 30 29 30 32 34 35 36 36 38
24 25 31 28 28 29 28 25 24 25 23 23 23 23 23 24 24 24 25 27 28 27 28 28 28 29 30 30 30 31 32 33 33 33 32 32 33 33 35 37 38 39 41
24 43 34 31 29 32 32 28 25 26 25 22 22 23 22 23 24 26 27 28 28 28 30 30 31 31 32 34 35 38 39 37 34 33 35 36 37 34 32 35 37 38 40
15 12 19 19 31 30 35 33 28 27 28 25 25 26 26 26 27 26 27 28 28 29 30 31 33 33 35 37 40 41 38 33 30 30 29 32 35 33 30 32 34 36 37
16 16 16 17 20 27 34 33 33 30 30 28 28 29 29 30 31 30 29 28 27 30 31 31 31 32 35 38 39 38 37 35 37 36 36 34 34 36 33 32 32 31 34
16 17 17 14 10 19 24 33 36 33 32 32 32 32 33 33 30 28 28 29 30 30 32 32 29 32 31 33 37 37 31 31 34 39 37 34 34 35 35 33 35 32 31
17 19 19 18 9 10 11 16 20 29 36 35 29 25 28 29 28 28 28 30 26 30 31 32 33 31 31 34 35 34 36 36 35 35 36 36 37 36 37 37 35 34 34
22 21 20 17 15 15 11 12 14 17 20 22 24 27 26 27 26 27 29 31 33 33 34 39 38 37 36 37 37 34 34 37 36 36 37 38 38 41 37 36 37 37 39
21 19 20 15 14 13 13 13 15 18 19 20 24 28 31 32 29 29 32 34 36 38 37 40 38 40 41 40 39 38 39 38 41 40 41 40 41 40 42 41 41 43 44

GFSGL_500_spd_360.txt.gz
Wind_Speed
38 38 40 41 41 41 42 43 41 38 38 38 37 36 37 35 37 36 39 40 42 45 44 47 42 42 37 36 26 34 38 38 44 35 36 36 35 39 39 42 42 35 39
42 42 42 44 44 44 46 46 43 41 39 38 37 38 40 39 39 40 41 42 42 38 38 41 41 41 35 29 32 37 39 43 44 38 41 35 37 36 39 39 44 41 43
46 44 43 44 45 45 45 45 44 43 40 38 36 39 40 41 41 43 44 51 48 41 42 41 37 30 18 16 21 22 26 30 39 41 38 33 30 41 40 38 37 40 42
52 51 49 48 48 48 46 45 44 43 39 38 36 38 40 41 39 44 45 42 26 28 38 40 39 26 20 15 12 14 18 28 21 18 28 37 35 25 25 33 28 19 13
58 57 57 53 51 49 47 46 45 43 39 36 34 36 39 39 38 39 39 28 29 34 40 39 28 18 12 10 13 13 14 13 13 12 16 17 18 18 20 30 30 17 11
61 61 60 56 50 47 45 44 44 42 37 34 33 33 37 35 34 31 26 23 20 16 15 15 14 12 13 14 15 15 17 17 16 18 20 24 23 22 21 21 20 20 23
60 59 55 52 47 45 43 42 41 38 36 33 31 32 34 31 28 24 17 21 15 17 13 10 10 12 14 17 19 21 22 23 24 24 23 22 22 20 19 18 17 16 16
57 54 49 50 47 42 38 39 39 35 33 34 31 31 30 28 23 23 17 27 22 17 11 13 13 10 11 16 19 22 24 24 25 24 23 21 21 22 22 20 18 18 18
51 50 46 47 45 40 36 33 35 33 34 34 32 32 28 25 21 19 17 28 30 23 16 19 20 15 17 20 18 18 21 20 19 20 19 20 19 20 18 18 19 19 19
50 48 46 47 46 42 36 33 32 34 33 34 31 30 27 22 20 18 17 21 22 18 11 16 16 15 17 16 16 18 18 17 17 18 18 18 19 19 19 19 20 19 20
48 46 45 42 43 40 36 33 31 30 30 27 27 26 25 22 19 19 20 17 13 19 13 13 13 13 12 11 13 15 16 16 17 17 18 20 20 21 22 22 21 21 22
46 42 41 40 39 39 34 32 29 29 28 28 26 25 22 19 18 19 19 18 21 22 18 13 12 11 11 12 14 15 15 16 17 18 21 22 23 23 24 24 24 23 23
41 43 41 40 40 36 28 29 29 26 26 26 24 22 20 17 15 16 18 27 24 27 21 16 14 13 13 14 13 12 12 15 17 19 22 24 25 26 25 25 26 27 27
43 43 40 36 35 29 26 25 27 25 24 22 19 19 18 16 15 15 17 20 22 26 26 22 17 15 15 16 14 13 14 16 18 21 24 25 26 26 26 28 28 29 29
41 39 40 35 39 29 30 29 22 26 24 21 18 18 18 17 17 16 17 16 16 16 18 19 19 19 18 17 16 16 17 18 20 23 24 25 26 27 28 29 30 30 29
39 38 37 30 30 33 28 23 21 22 25 22 20 20 19 18 18 16 17 18 19 18 18 20 21 20 20 20 20 21 21 21 22 23 24 24 25 26 27 28 29 30 31
38 36 32 27 28 21 17 18 17 19 24 24 22 22 22 20 18 18 16 17 18 17 18 20 22 22 23 24 24 23 23 24 24 24 24 25 27 28 29 29 30 32 34
27 26 27 23 23 18 16 18 17 20 22 25 24 24 24 22 20 19 19 17 19 21 23 24 25 25 25 25 26 26 26 26 25 26 26 27 29 30 31 31 32 33 36
17 18 20 18 21 17 17 19 19 22 23 26 24 23 26 24 22 21 22 22 22 23 24 24 24 25 27 27 27 27 27 27 26 27 28 28 28 30 29 31 32 33 34
17 16 16 15 14 16 21 20 20 21 24 26 25 24 25 24 23 24 24 26 26 26 25 25 26 27 27 28 29 29 28 27 27 29 31 31 32 32 33 34 35 36 34
14 15 18 12 13 10 13 17 21 24 27 31 30 29 24 27 25 24 25 27 28 28 27 26 27 26 27 28 28 29 28 28 29 30 31 31 31 33 33 32 33 33 32
11 12 15 12 11 13 13 17 17 19 28 30 31 35 30 28 28 27 26 28 29 29 29 28 31 31 30 28 29 30 29 29 28 27 29 31 30 32 31 30 32 35 36
19 18 17 18 15 14 15 18 15 15 17 25 30 31 29 33 30 31 30 30 30 31 32 30 29 30 27 28 27 26 27 28 29 29 29 32 33 32 33 34 35 33 33
21 21 15 16 17 18 17 12 13 12 12 18 32 34 34 34 33 31 29 30 33 33 30 27 27 29 28 27 26 27 26 28 30 36 35 34 34 34 36 37 36 36 37
17 16 14 18 19 19 20 21 19 18 16 16 16 24 34 35 25 25 24 26 25 23 26 27 29 31 31 31 31 32 31 32 35 36 36 35 35 36 39 38 38 39 38
16 15 14 18 20 15 19 23 18 16 12 14 15 10 12 19 19 17 22 25 20 23 27 29 31 31 34 35 34 34 34 36 36 37 37 40 42 40 39 41 42 41 42

GFSGL_500_spd_366.txt.gz
Wind_Speed
40 40 40 41 42 43 45 45 45 46 48 49 50 49 47 47 49 47 44 41 41 38 37 38 38 39 40 42 45 47 48 45 40 36 40 42 45 44 38 42 40 33 32
40 41 43 45 47 49 51 52 52 53 53 54 52 50 51 50 49 48 45 44 42 39 39 40 39 40 41 43 45 49 51 44 37 36 30 31 36 41 33 33 41 37 33
41 44 47 49 51 54 56 57 57 57 55 54 52 50 49 48 49 49 46 43 43 41 42 42 39 39 42 43 46 45 42 39 36 30 36 32 30 33 34 33 35 29 32
44 46 49 52 55 58 61 62 62 61 59 51 48 49 50 49 48 47 45 43 43 43 43 41 37 40 43 45 40 37 34 33 32 39 36 32 32 38 36 35 33 34 33
49 48 51 56 59 61 62 63 63 62 61 58 55 49 49 48 46 46 44 42 41 40 40 37 36 39 41 36 29 29 36 37 29 31 33 27 32 31 27 22 30 28 25
52 52 55 58 60 61 63 64 62 63 63 60 53 44 43 41 39 42 41 40 38 38 35 33 34 32 27 24 26 26 22 26 25 19 21 19 19 19 22 20 15 15 15
62 59 57 58 60 63 64 64 62 61 60 57 48 41 39 37 36 37 38 36 34 32 30 29 25 25 20 17 18 27 20 18 23 25 19 15 18 15 16 14 14 15 12
58 59 61 62 62 61 63 61 58 55 46 42 40 36 34 34 37 34 35 32 31 28 27 27 27 25 27 21 18 20 24 20 16 18 17 19 17 17 18 15 13 11 12
56 58 58 60 61 56 54 59 54 48 38 34 36 36 36 35 34 34 31 32 29 27 28 26 23 26 20 16 15 17 14 14 14 17 18 18 17 19 17 15 14 12 12
55 57 57 56 56 53 53 58 54 38 37 35 34 36 36 38 34 31 29 29 28 26 27 23 20 23 22 20 17 17 15 17 15 17 20 19 18 17 15 15 14 15 14
55 54 52 53 55 54 50 47 52 47 47 36 32 43 32 32 30 30 30 26 27 26 26 22 20 24 25 20 15 15 16 17 19 19 16 16 17 19 18 17 15 15 11
50 49 51 50 49 50 48 45 44 46 44 26 22 25 24 25 29 33 22 22 25 26 23 20 20 24 21 19 21 18 17 18 18 17 17 17 18 19 19 17 15 17 13
48 49 50 50 49 47 49 45 44 42 30 29 24 24 23 24 28 25 20 20 24 25 22 23 23 24 20 19 18 16 18 17 16 16 18 19 18 18 16 16 16 18 17
48 48 47 51 48 46 47 45 43 37 32 26 27 25 24 23 25 19 18 19 23 23 21 22 21 19 13 19 17 16 15 15 15 15 15 15 15 15 16 18 19 20 20
43 45 49 49 47 46 45 43 38 30 26 24 20 21 22 22 22 18 18 21 22 20 21 21 21 20 18 19 19 17 17 17 16 16 15 14 14 16 18 19 22 23 22
45 47 46 45 43 36 31 28 23 20 22 23 23 23 21 21 20 17 19 18 19 18 19 21 21 23 24 25 23 21 20 20 19 18 18 19 19 20 21 22 23 23 24
44 43 40 38 34 28 26 22 18 15 13 12 12 14 17 17 17 17 18 17 18 19 20 20 20 20 22 26 25 22 21 22 23 22 22 22 23 25 26 26 26 26 26
41 38 35 32 34 28 20 18 14 13 9 12 14 15 14 17 18 18 19 18 19 20 22 22 23 22 21 24 25 23 23 24 25 25 25 26 27 27 25 25 25 25 26
34 32 30 30 29 22 18 14 16 10 14 15 16 15 15 17 19 19 19 20 19 21 23 22 22 25 24 23 24 25 25 26 27 27 28 28 26 24 24 24 23 24 25
26 30 26 24 18 16 12 11 12 11 16 18 16 15 18 17 18 20 20 21 20 21 24 24 23 24 25 25 25 26 27 29 29 27 25 24 23 23 24 22 23 24 24
25 27 24 23 18 17 13 10 10 9 9 7 14 20 25 26 19 18 20 22 23 23 24 27 28 28 28 28 29 30 30 30 25 25 25 24 25 25 25 25 25 24 26
22 21 22 23 26 24 19 16 15 13 14 13 14 17 20 19 19 21 25 24 24 26 28 30 31 33 33 33 33 32 32 30 28 29 29 29 29 26 27 25 27 26 24
22 22 23 24 22 23 14 14 15 15 15 18 15 15 19 25 27 28 25 28 31 32 30 30 30 32 36 37 37 36 33 30 31 33 34 32 28 28 29 34 31 26 22
19 20 23 25 23 19 16 14 15 16 18 16 16 19 17 20 23 28 33 38 34 32 33 35 35 34 34 35 37 35 33 33 33 35 34 31 30 29 32 37 37 21 18
19 21 21 22 21 18 18 20 23 20 19 19 16 17 18 19 21 23 27 35 45 33 35 36 30 41 44 42 43 44 39 39 44 38 35 36 38 38 28 32 29 33 35
23 23 23 23 23 22 21 20 20 19 18 22 20 16 18 19 23 30 31 35 39 41 42 37 34 40 36 37 35 36 28 33 37 38 35 32 30 33 42 38 37 38 38

GFSGL_500_spd_369.txt.gz
Wind_Speed
45 46 45 43 41 41 43 44 46 48 50 51 50 48 49 49 49 47 46 45 44 44 43 42 39 39 40 39 40 40 39 40 44 41 40 43 45 43 42 37 32 31 35
48 47 43 45 47 47 48 49 50 53 55 56 56 55 52 49 47 46 45 45 45 44 42 43 40 40 40 41 40 41 42 43 42 41 44 45 44 39 34 33 35 36 37
45 44 43 45 50 51 52 53 54 56 58 60 59 57 56 54 50 48 48 47 48 46 43 42 41 40 41 43 44 43 42 45 49 49 47 40 41 34 30 30 33 31 38
38 43 39 42 51 50 53 55 56 56 57 60 61 59 58 53 50 50 45 42 43 43 42 41 41 41 41 42 41 43 46 49 52 47 35 31 34 29 36 36 31 33 32
37 53 47 50 50 47 55 55 55 55 57 62 60 61 55 51 48 45 41 39 38 37 37 37 38 40 37 37 38 42 45 46 42 33 30 27 30 36 27 29 32 32 29
45 54 41 42 53 54 52 55 55 54 56 59 60 64 51 38 39 34 34 35 34 35 33 33 35 36 34 33 37 37 36 32 33 32 30 37 35 30 38 26 25 28 29
68 19 41 50 47 52 54 59 56 55 52 57 58 63 38 25 28 32 33 34 33 31 31 30 32 29 28 30 30 24 21 24 29 25 20 28 29 25 23 22 22 16 17
55 56 60 45 57 58 56 56 55 54 53 55 55 49 37 30 27 27 31 35 33 29 28 28 27 24 25 25 25 24 24 26 24 26 27 16 23 20 17 16 15 13 17
54 53 54 53 52 55 58 57 54 54 55 52 49 46 56 48 26 26 29 34 30 29 28 27 25 22 26 24 23 19 18 20 20 16 13 12 11 10 10 11 14 17 18
56 56 55 55 57 57 55 53 53 53 54 49 45 41 35 29 28 32 31 27 27 28 25 25 25 24 23 23 20 18 17 17 14 13 16 15 13 12 13 11 13 16 17
54 53 54 54 55 53 50 48 51 52 48 44 41 38 24 22 24 21 23 21 22 27 27 24 25 21 21 15 16 17 18 15 16 15 14 16 16 16 13 14 16 15 16
51 51 49 49 49 47 45 46 49 49 45 44 40 32 27 23 17 18 15 18 24 25 23 24 24 21 20 20 19 19 21 19 19 19 17 13 13 16 18 18 17 16 18
49 47 46 47 44 44 47 48 48 48 41 41 34 28 26 22 19 17 16 20 20 20 23 23 19 19 19 23 19 22 22 20 18 16 16 16 16 16 16 15 15 16 18
45 46 46 43 42 45 47 45 44 39 33 29 22 22 21 19 17 17 16 16 16 13 19 21 18 18 20 8 21 19 23 22 19 18 17 18 17 16 16 15 16 17 18
40 44 43 42 43 43 40 39 33 31 28 24 20 20 17 17 17 17 16 16 18 14 15 15 15 18 13 17 19 20 20 20 20 20 19 18 17 16 17 18 20 20 21
42 40 39 39 40 40 36 32 33 26 22 18 19 20 19 21 20 16 16 17 19 14 13 15 16 18 18 18 20 19 20 20 20 20 19 18 18 17 16 16 17 18 20
37 34 37 38 37 35 33 30 20 21 16 12 14 12 11 14 18 16 17 16 15 13 14 17 16 17 19 22 25 23 22 22 21 20 21 20 19 18 15 18 20 21 22
33 34 36 32 31 28 28 22 17 17 12 12 11 11 10 11 13 15 16 17 18 17 15 16 16 17 18 19 22 25 25 23 23 23 24 23 22 20 19 20 21 22 23
29 29 26 27 28 26 23 19 15 14 11 7 8 11 14 16 16 18 18 18 20 20 18 18 17 18 20 19 18 21 25 27 27 27 29 27 25 23 23 22 23 23 24
25 26 23 24 27 26 23 18 14 13 11 8 8 11 16 20 18 18 20 19 20 22 20 19 20 19 20 21 22 23 26 29 29 31 30 28 26 24 23 22 22 21 22
23 23 22 24 26 24 25 17 18 16 11 8 7 10 8 14 25 19 19 21 23 23 23 22 22 23 24 24 25 27 28 29 31 31 30 28 29 26 25 25 24 22 22
22 22 21 20 22 23 24 22 12 13 15 15 13 15 16 12 15 20 28 25 25 23 24 25 26 26 28 29 29 30 30 31 33 34 32 32 31 29 28 27 26 27 26
20 22 20 21 23 21 20 21 19 15 15 15 17 17 13 14 14 17 21 27 20 26 29 27 27 27 25 27 30 31 33 33 35 36 34 34 32 30 31 30 31 30 28
19 20 20 22 22 21 20 20 20 19 17 22 16 15 17 21 18 16 19 24 34 29 37 32 29 26 27 29 31 33 34 36 37 38 37 37 34 33 34 33 33 32 32
21 21 20 20 22 22 21 20 21 21 19 16 17 19 22 21 21 22 21 22 26 42 32 27 31 30 30 33 37 41 40 40 38 39 40 40 38 35 35 35 35 36 37
25 24 24 24 24 24 23 21 21 22 23 22 20 21 20 20 21 18 20 23 28 29 32 31 36 42 34 30 34 36 38 39 44 44 44 41 44 41 42 45 38 45 33